Location: Unspecified
(48.8656°N, 0.0000°E)
Time: 16:06:03
(UTC+00:00)

Vanguard 1 - Pass Details

Date: 18 June 2019
Orbit: 655 x 3829 km, 34.2° (Epoch: 20 August)

Event Time Altitude Azimuth Distance (km) Brightness Sun altitude
Rises 02:02:44 0° 206° (SSW) 7,412 - -12.8°
Reaches altitude 10° 02:10:16 10° 193° (SSW) 5,856 - -12.2°
Exits shadow 02:10:37 11° 192° (SSW) 5,786 13.4 -12.2°
Maximum altitude 02:20:14 19° 156° (SSE) 4,193 13.0 -11.3°
Drops below altitude 10° 02:27:28 10° 116° (ESE) 4,095 13.3 -10.7°
Sets 02:31:20 0° 99° (E) 4,614 13.9 -10.3°
